owner,sensor,date,latitude,longitude,air_temperature,qcFlag 
TABS,ioos:station:wmo:42043:1,2005-10-11T14:00:00Z,28.9818,-94.9186,10.8,11144222 
TABS,ioos:station:wmo:42043:1,2005-10-11T14:30:00Z,28.9818,-94.9186,-11.5,11144222 
TABS,ioos:station:wmo:42043:1,2005-10-11T15:00:00Z,28.9818,-94.9186,-19.9,11144222 
TABS,ioos:station:wmo:42043:1,2005-10-11T15:30:00Z,28.9818,-94.9186,-999.0,22222222 
TABS,ioos:station:wmo:42043:1,2005-10-11T16:00:00Z,28.9818,-94.9186,-999.0,22222222 
TABS,ioos:station:wmo:42043:1,2005-10-11T16:30:00Z,28.9818,-94.9186,-999.0,22222222 
TABS,ioos:station:wmo:42043:1,2005-10-11T17:00:00Z,28.9818,-94.9186,-999.0,22222222 
TABS,ioos:station:wmo:42043:1,2005-10-11T17:30:00Z,28.9818,-94.9186,-999.0,22222222 
TABS,ioos:station:wmo:42043:1,2005-10-11T18:00:00Z,28.9818,-94.9186,-999.0,22222222 
TABS,ioos:station:wmo:42043:1,2005-10-11T18:30:00Z,28.9818,-94.9186,-999.0,22222222 
TABS,ioos:station:wmo:42043:1,2005-10-11T19:00:00Z,28.9818,-94.9186,-999.0,22222222 
TABS,ioos:station:wmo:42043:1,2005-10-11T19:30:00Z,28.9818,-94.9186,-999.0,22222222 
TABS,ioos:station:wmo:42043:1,2005-10-11T20:00:00Z,28.9818,-94.9186,-999.0,22222222 
TABS,ioos:station:wmo:42043:1,2005-10-11T20:30:00Z,28.9818,-94.9186,-999.0,22222222 
TABS,ioos:station:wmo:42043:1,2005-10-11T21:00:00Z,28.9818,-94.9186,-999.0,22222222 
TABS,ioos:station:wmo:42043:1,2005-10-11T21:30:00Z,28.9818,-94.9186,-999.0,22222222 
TABS,ioos:station:wmo:42043:1,2005-10-11T22:00:00Z,28.9818,-94.9186,-19.2,11144222 
TABS,ioos:station:wmo:42043:1,2005-10-11T22:30:00Z,28.9818,-94.9186,-999.0,22222222 
TABS,ioos:station:wmo:42043:1,2005-10-11T23:00:00Z,28.9818,-94.9186,-999.0,22222222 
TABS,ioos:station:wmo:42043:1,2005-10-11T23:30:00Z,28.9818,-94.9186,-15.0,11144222 
TABS,ioos:station:wmo:42043:1,2005-10-12T00:00:00Z,28.9818,-94.9186,-999.0,22222222 
TABS,ioos:station:wmo:42043:1,2005-10-12T00:30:00Z,28.9818,-94.9186,-15.4,11144222 
TABS,ioos:station:wmo:42043:1,2005-10-12T01:00:00Z,28.9818,-94.9186,-15.2,11144222 
TABS,ioos:station:wmo:42043:1,2005-10-12T01:30:00Z,28.9818,-94.9186,-999.0,22222222 
TABS,ioos:station:wmo:42043:1,2005-10-12T02:00:00Z,28.9818,-94.9186,-999.0,22222222 
TABS,ioos:station:wmo:42043:1,2005-10-12T02:30:00Z,28.9818,-94.9186,-15.7,11144222 
TABS,ioos:station:wmo:42043:1,2005-10-12T03:00:00Z,28.9818,-94.9186,-999.0,22222222 
TABS,ioos:station:wmo:42043:1,2005-10-12T03:30:00Z,28.9818,-94.9186,-13.0,11144222 
TABS,ioos:station:wmo:42043:1,2005-10-12T04:00:00Z,28.9818,-94.9186,-3.2,11144222 
TABS,ioos:station:wmo:42043:1,2005-10-12T04:30:00Z,28.9818,-94.9186,-19.7,11144222 
TABS,ioos:station:wmo:42043:1,2005-10-12T05:00:00Z,28.9818,-94.9186,-19.6,11144222 
TABS,ioos:station:wmo:42043:1,2005-10-12T05:30:00Z,28.9818,-94.9186,-999.0,22222222 
TABS,ioos:station:wmo:42043:1,2005-10-12T06:00:00Z,28.9818,-94.9186,-17.7,11144222 
TABS,ioos:station:wmo:42043:1,2005-10-12T06:30:00Z,28.9818,-94.9186,-10.4,11144222 
TABS,ioos:station:wmo:42043:1,2005-10-12T07:00:00Z,28.9818,-94.9186,-13.8,11144222 
TABS,ioos:station:wmo:42043:1,2005-10-12T07:30:00Z,28.9818,-94.9186,-13.8,11144222 
TABS,ioos:station:wmo:42043:1,2005-10-12T08:00:00Z,28.9818,-94.9186,-19.3,11144222 
TABS,ioos:station:wmo:42043:1,2005-10-12T08:30:00Z,28.9818,-94.9186,-15.0,11144222 
TABS,ioos:station:wmo:42043:1,2005-10-12T09:00:00Z,28.9818,-94.9186,-17.4,11144222 
TABS,ioos:station:wmo:42043:1,2005-10-12T09:30:00Z,28.9818,-94.9186,-12.0,11144222 
TABS,ioos:station:wmo:42043:1,2005-10-12T10:00:00Z,28.9818,-94.9186,-14.5,11144222 
TABS,ioos:station:wmo:42043:1,2005-10-12T10:30:00Z,28.9818,-94.9186,-11.9,11144222 
TABS,ioos:station:wmo:42043:1,2005-10-12T11:00:00Z,28.9818,-94.9186,-13.2,11144222 
TABS,ioos:station:wmo:42043:1,2005-10-12T11:30:00Z,28.9818,-94.9186,-9.2,11144222 
TABS,ioos:station:wmo:42043:1,2005-10-12T12:00:00Z,28.9818,-94.9186,-11.2,11144222 
TABS,ioos:station:wmo:42043:1,2005-10-12T12:30:00Z,28.9818,-94.9186,-12.1,11144222 
TABS,ioos:station:wmo:42043:1,2005-10-12T13:00:00Z,28.9818,-94.9186,-12.9,11144222 
TABS,ioos:station:wmo:42043:1,2005-10-12T13:30:00Z,28.9818,-94.9186,-13.8,11144222 
TABS,ioos:station:wmo:42043:1,2005-10-12T14:00:00Z,28.9818,-94.9186,-14.9,11144222 
TABS,ioos:station:wmo:42043:1,2005-10-12T14:30:00Z,28.9818,-94.9186,-15.3,11144222 
TABS,ioos:station:wmo:42043:1,2005-10-12T15:00:00Z,28.9818,-94.9186,-15.5,11144222 
TABS,ioos:station:wmo:42043:1,2005-10-12T15:30:00Z,28.9818,-94.9186,-16.0,11144222 
TABS,ioos:station:wmo:42043:1,2005-10-12T16:00:00Z,28.9818,-94.9186,-15.8,11144222 
TABS,ioos:station:wmo:42043:1,2005-10-12T16:30:00Z,28.9818,-94.9186,-15.7,11144222 
TABS,ioos:station:wmo:42043:1,2005-10-12T17:00:00Z,28.9818,-94.9186,-15.7,11144222 
TABS,ioos:station:wmo:42043:1,2005-10-12T17:30:00Z,28.9818,-94.9186,-15.6,11144222 
TABS,ioos:station:wmo:42043:1,2005-10-12T18:00:00Z,28.9818,-94.9186,-15.4,11144222 
TABS,ioos:station:wmo:42043:1,2005-10-12T18:30:00Z,28.9818,-94.9186,-15.1,11144222 
TABS,ioos:station:wmo:42043:1,2005-10-12T19:00:00Z,28.9818,-94.9186,-14.9,11144222 
TABS,ioos:station:wmo:42043:1,2005-10-12T19:30:00Z,28.9818,-94.9186,-14.6,11144222 
TABS,ioos:station:wmo:42043:1,2005-10-12T20:00:00Z,28.9818,-94.9186,-14.4,11144222 
TABS,ioos:station:wmo:42043:1,2005-10-12T20:30:00Z,28.9818,-94.9186,-14.1,11144222 
TABS,ioos:station:wmo:42043:1,2005-10-12T21:00:00Z,28.9818,-94.9186,-13.4,11144222 
TABS,ioos:station:wmo:42043:1,2005-10-12T21:30:00Z,28.9818,-94.9186,-11.8,11144222 
TABS,ioos:station:wmo:42043:1,2005-10-12T22:00:00Z,28.9818,-94.9186,-10.8,11144222 
TABS,ioos:station:wmo:42043:1,2005-10-12T22:30:00Z,28.9818,-94.9186,-9.5,11144222 
TABS,ioos:station:wmo:42043:1,2005-10-12T23:00:00Z,28.9818,-94.9186,-8.3,11144222 
TABS,ioos:station:wmo:42043:1,2005-10-12T23:30:00Z,28.9818,-94.9186,-7.7,11144222 
TABS,ioos:station:wmo:42043:1,2005-10-13T00:00:00Z,28.9818,-94.9186,-6.8,11144222 
TABS,ioos:station:wmo:42043:1,2005-10-13T00:30:00Z,28.9818,-94.9186,-5.8,11144222 
TABS,ioos:station:wmo:42043:1,2005-10-13T01:00:00Z,28.9818,-94.9186,-4.9,11144222 
TABS,ioos:station:wmo:42043:1,2005-10-13T01:30:00Z,28.9818,-94.9186,-4.0,11144222 
TABS,ioos:station:wmo:42043:1,2005-10-13T02:00:00Z,28.9818,-94.9186,-3.0,11144222 
TABS,ioos:station:wmo:42043:1,2005-10-13T02:30:00Z,28.9818,-94.9186,-2.0,11144222 
TABS,ioos:station:wmo:42043:1,2005-10-13T03:00:00Z,28.9818,-94.9186,-0.9,11144222 
TABS,ioos:station:wmo:42043:1,2005-10-13T03:30:00Z,28.9818,-94.9186,0.3,11144222 
TABS,ioos:station:wmo:42043:1,2005-10-13T04:00:00Z,28.9818,-94.9186,1.1,11144222 
TABS,ioos:station:wmo:42043:1,2005-10-13T04:30:00Z,28.9818,-94.9186,2.4,11144222 
TABS,ioos:station:wmo:42043:1,2005-10-13T05:00:00Z,28.9818,-94.9186,3.2,11144222 
TABS,ioos:station:wmo:42043:1,2005-10-13T05:30:00Z,28.9818,-94.9186,4.3,11144222 
TABS,ioos:station:wmo:42043:1,2005-10-13T06:00:00Z,28.9818,-94.9186,5.4,11144222 
TABS,ioos:station:wmo:42043:1,2005-10-13T06:30:00Z,28.9818,-94.9186,6.6,11144222 
TABS,ioos:station:wmo:42043:1,2005-10-13T07:00:00Z,28.9818,-94.9186,7.9,11144222 
TABS,ioos:station:wmo:42043:1,2005-10-13T07:30:00Z,28.9818,-94.9186,8.4,11144222 
TABS,ioos:station:wmo:42043:1,2005-10-13T08:00:00Z,28.9818,-94.9186,8.4,11144222 
TABS,ioos:station:wmo:42043:1,2005-10-13T08:30:00Z,28.9818,-94.9186,8.0,11144222 
TABS,ioos:station:wmo:42043:1,2005-10-13T09:00:00Z,28.9818,-94.9186,7.5,11144222 
TABS,ioos:station:wmo:42043:1,2005-10-13T09:30:00Z,28.9818,-94.9186,7.1,11144222 
TABS,ioos:station:wmo:42043:1,2005-10-13T10:00:00Z,28.9818,-94.9186,6.7,11144222 
TABS,ioos:station:wmo:42043:1,2005-10-13T10:30:00Z,28.9818,-94.9186,6.3,11144222 
TABS,ioos:station:wmo:42043:1,2005-10-13T11:00:00Z,28.9818,-94.9186,5.9,11144222 
TABS,ioos:station:wmo:42043:1,2005-10-13T11:30:00Z,28.9818,-94.9186,5.1,11144222 
TABS,ioos:station:wmo:42043:1,2005-10-13T12:00:00Z,28.9818,-94.9186,4.4,11144222 
TABS,ioos:station:wmo:42043:1,2005-10-13T12:30:00Z,28.9818,-94.9186,3.5,11144222 
TABS,ioos:station:wmo:42043:1,2005-10-13T13:00:00Z,28.9818,-94.9186,3.6,11144222 
TABS,ioos:station:wmo:42043:1,2005-10-13T13:30:00Z,28.9818,-94.9186,4.4,11144222 
TABS,ioos:station:wmo:42043:1,2005-10-13T14:00:00Z,28.9818,-94.9186,5.0,11144222 
TABS,ioos:station:wmo:42043:1,2005-10-13T14:30:00Z,28.9818,-94.9186,5.8,11144222 
TABS,ioos:station:wmo:42043:1,2005-10-13T15:00:00Z,28.9818,-94.9186,6.2,11144222 
TABS,ioos:station:wmo:42043:1,2005-10-13T15:30:00Z,28.9818,-94.9186,6.5,11144222 
TABS,ioos:station:wmo:42043:1,2005-10-13T16:00:00Z,28.9818,-94.9186,6.7,11144222 
TABS,ioos:station:wmo:42043:1,2005-10-13T16:30:00Z,28.9818,-94.9186,6.9,11144222 
TABS,ioos:station:wmo:42043:1,2005-10-13T17:00:00Z,28.9818,-94.9186,7.0,11144222 
TABS,ioos:station:wmo:42043:1,2005-10-13T17:30:00Z,28.9818,-94.9186,7.3,11144222 
TABS,ioos:station:wmo:42043:1,2005-10-13T18:00:00Z,28.9818,-94.9186,7.5,11144222 
TABS,ioos:station:wmo:42043:1,2005-10-13T18:30:00Z,28.9818,-94.9186,7.8,11144222 
TABS,ioos:station:wmo:42043:1,2005-10-13T19:00:00Z,28.9818,-94.9186,8.0,11144222 
TABS,ioos:station:wmo:42043:1,2005-10-13T19:30:00Z,28.9818,-94.9186,8.1,11144222 
TABS,ioos:station:wmo:42043:1,2005-10-13T20:00:00Z,28.9818,-94.9186,8.6,11144222 
TABS,ioos:station:wmo:42043:1,2005-10-13T20:30:00Z,28.9818,-94.9186,9.1,11144222 
TABS,ioos:station:wmo:42043:1,2005-10-13T21:00:00Z,28.9818,-94.9186,9.6,11144222 
TABS,ioos:station:wmo:42043:1,2005-10-13T21:30:00Z,28.9818,-94.9186,10.4,11144222 
TABS,ioos:station:wmo:42043:1,2005-10-13T22:00:00Z,28.9818,-94.9186,11.0,11144222 
TABS,ioos:station:wmo:42043:1,2005-10-13T22:30:00Z,28.9818,-94.9186,12.2,11144222 
TABS,ioos:station:wmo:42043:1,2005-10-13T23:00:00Z,28.9818,-94.9186,13.0,11144222 
TABS,ioos:station:wmo:42043:1,2005-10-13T23:30:00Z,28.9818,-94.9186,13.7,11144222 
TABS,ioos:station:wmo:42043:1,2005-10-14T00:00:00Z,28.9818,-94.9186,14.4,11144222 
TABS,ioos:station:wmo:42043:1,2005-10-14T00:30:00Z,28.9818,-94.9186,14.9,11144222 
TABS,ioos:station:wmo:42043:1,2005-10-14T01:00:00Z,28.9818,-94.9186,15.2,11144222 
TABS,ioos:station:wmo:42043:1,2005-10-14T01:30:00Z,28.9818,-94.9186,15.7,11144222 
TABS,ioos:station:wmo:42043:1,2005-10-14T02:00:00Z,28.9818,-94.9186,16.1,11144222 
TABS,ioos:station:wmo:42043:1,2005-10-14T02:30:00Z,28.9818,-94.9186,16.5,11144222 
TABS,ioos:station:wmo:42043:1,2005-10-14T03:00:00Z,28.9818,-94.9186,16.8,11144222 
TABS,ioos:station:wmo:42043:1,2005-10-14T03:30:00Z,28.9818,-94.9186,17.2,11144222 
TABS,ioos:station:wmo:42043:1,2005-10-14T04:00:00Z,28.9818,-94.9186,17.5,11144222 
TABS,ioos:station:wmo:42043:1,2005-10-14T04:30:00Z,28.9818,-94.9186,17.7,11144222 
TABS,ioos:station:wmo:42043:1,2005-10-14T05:00:00Z,28.9818,-94.9186,17.9,11144222 
TABS,ioos:station:wmo:42043:1,2005-10-14T05:30:00Z,28.9818,-94.9186,17.7,11144222 
TABS,ioos:station:wmo:42043:1,2005-10-14T06:00:00Z,28.9818,-94.9186,17.5,11144222 
TABS,ioos:station:wmo:42043:1,2005-10-14T06:30:00Z,28.9818,-94.9186,17.1,11144222 
TABS,ioos:station:wmo:42043:1,2005-10-14T07:00:00Z,28.9818,-94.9186,16.8,11144222 
TABS,ioos:station:wmo:42043:1,2005-10-14T07:30:00Z,28.9818,-94.9186,17.1,11144222 
TABS,ioos:station:wmo:42043:1,2005-10-14T08:00:00Z,28.9818,-94.9186,17.1,11144222 
TABS,ioos:station:wmo:42043:1,2005-10-14T08:30:00Z,28.9818,-94.9186,17.0,11144222 
TABS,ioos:station:wmo:42043:1,2005-10-14T09:00:00Z,28.9818,-94.9186,16.4,11144222 
TABS,ioos:station:wmo:42043:1,2005-10-14T09:30:00Z,28.9818,-94.9186,15.8,11144222 
TABS,ioos:station:wmo:42043:1,2005-10-14T10:00:00Z,28.9818,-94.9186,15.2,11144222 
TABS,ioos:station:wmo:42043:1,2005-10-14T10:30:00Z,28.9818,-94.9186,14.8,11144222 
TABS,ioos:station:wmo:42043:1,2005-10-14T11:00:00Z,28.9818,-94.9186,14.4,11144222 
TABS,ioos:station:wmo:42043:1,2005-10-14T11:30:00Z,28.9818,-94.9186,14.1,11144222 
TABS,ioos:station:wmo:42043:1,2005-10-14T12:00:00Z,28.9818,-94.9186,14.1,11144222 
TABS,ioos:station:wmo:42043:1,2005-10-14T12:30:00Z,28.9818,-94.9186,13.7,11144222 
TABS,ioos:station:wmo:42043:1,2005-10-14T13:00:00Z,28.9818,-94.9186,13.6,11144222 
TABS,ioos:station:wmo:42043:1,2005-10-14T13:30:00Z,28.9818,-94.9186,13.3,11144222 
TABS,ioos:station:wmo:42043:1,2005-10-14T14:00:00Z,28.9818,-94.9186,13.1,11144222 
TABS,ioos:station:wmo:42043:1,2005-10-14T14:30:00Z,28.9818,-94.9186,13.2,11144222 
TABS,ioos:station:wmo:42043:1,2005-10-14T15:00:00Z,28.9818,-94.9186,13.3,11144222 
TABS,ioos:station:wmo:42043:1,2005-10-14T15:30:00Z,28.9818,-94.9186,12.6,11144222 
TABS,ioos:station:wmo:42043:1,2005-10-14T16:00:00Z,28.9818,-94.9186,12.3,11144222 
TABS,ioos:station:wmo:42043:1,2005-10-14T16:30:00Z,28.9818,-94.9186,12.2,11144222 
TABS,ioos:station:wmo:42043:1,2005-10-14T17:00:00Z,28.9818,-94.9186,12.2,11144222 
TABS,ioos:station:wmo:42043:1,2005-10-14T17:30:00Z,28.9818,-94.9186,12.1,11144222 
TABS,ioos:station:wmo:42043:1,2005-10-14T18:00:00Z,28.9818,-94.9186,12.3,11144222 
TABS,ioos:station:wmo:42043:1,2005-10-14T18:30:00Z,28.9818,-94.9186,12.3,11144222 
TABS,ioos:station:wmo:42043:1,2005-10-14T19:00:00Z,28.9818,-94.9186,12.6,11144222 
TABS,ioos:station:wmo:42043:1,2005-10-14T19:30:00Z,28.9818,-94.9186,13.1,11144222 
TABS,ioos:station:wmo:42043:1,2005-10-14T20:00:00Z,28.9818,-94.9186,13.8,11144222 
TABS,ioos:station:wmo:42043:1,2005-10-14T20:30:00Z,28.9818,-94.9186,14.3,11144222 
TABS,ioos:station:wmo:42043:1,2005-10-14T21:00:00Z,28.9818,-94.9186,14.9,11144222 
TABS,ioos:station:wmo:42043:1,2005-10-14T21:30:00Z,28.9818,-94.9186,15.6,11144222 
TABS,ioos:station:wmo:42043:1,2005-10-14T22:00:00Z,28.9818,-94.9186,16.7,11144222 
TABS,ioos:station:wmo:42043:1,2005-10-14T22:30:00Z,28.9818,-94.9186,17.7,11144222 
TABS,ioos:station:wmo:42043:1,2005-10-14T23:00:00Z,28.9818,-94.9186,18.6,11144222 
TABS,ioos:station:wmo:42043:1,2005-10-14T23:30:00Z,28.9818,-94.9186,19.5,11144222 
TABS,ioos:station:wmo:42043:1,2005-10-15T00:00:00Z,28.9818,-94.9186,20.6,11144222 
TABS,ioos:station:wmo:42043:1,2005-10-15T00:30:00Z,28.9818,-94.9186,20.8,11144222 
TABS,ioos:station:wmo:42043:1,2005-10-15T01:00:00Z,28.9818,-94.9186,21.0,11144222 
TABS,ioos:station:wmo:42043:1,2005-10-15T01:30:00Z,28.9818,-94.9186,21.3,11144222 
TABS,ioos:station:wmo:42043:1,2005-10-15T02:00:00Z,28.9818,-94.9186,21.4,11144222 
TABS,ioos:station:wmo:42043:1,2005-10-15T02:30:00Z,28.9818,-94.9186,21.5,11144222 
TABS,ioos:station:wmo:42043:1,2005-10-15T03:00:00Z,28.9818,-94.9186,21.9,11144222 
TABS,ioos:station:wmo:42043:1,2005-10-15T03:30:00Z,28.9818,-94.9186,22.3,11144222 
TABS,ioos:station:wmo:42043:1,2005-10-15T04:00:00Z,28.9818,-94.9186,22.6,11144222 
TABS,ioos:station:wmo:42043:1,2005-10-15T04:30:00Z,28.9818,-94.9186,22.7,11144222 
TABS,ioos:station:wmo:42043:1,2005-10-15T05:00:00Z,28.9818,-94.9186,22.6,11144222 
TABS,ioos:station:wmo:42043:1,2005-10-15T05:30:00Z,28.9818,-94.9186,22.5,11144222 
TABS,ioos:station:wmo:42043:1,2005-10-15T06:00:00Z,28.9818,-94.9186,22.5,11144222 
TABS,ioos:station:wmo:42043:1,2005-10-15T06:30:00Z,28.9818,-94.9186,22.3,11144222 
TABS,ioos:station:wmo:42043:1,2005-10-15T07:00:00Z,28.9818,-94.9186,22.3,11144222 
TABS,ioos:station:wmo:42043:1,2005-10-15T07:30:00Z,28.9818,-94.9186,22.2,11144222 
TABS,ioos:station:wmo:42043:1,2005-10-15T08:00:00Z,28.9818,-94.9186,22.1,11144222 
TABS,ioos:station:wmo:42043:1,2005-10-15T08:30:00Z,28.9818,-94.9186,21.8,11144222 
TABS,ioos:station:wmo:42043:1,2005-10-15T09:00:00Z,28.9818,-94.9186,21.3,11144222 
TABS,ioos:station:wmo:42043:1,2005-10-15T09:30:00Z,28.9818,-94.9186,21.0,11144222 
TABS,ioos:station:wmo:42043:1,2005-10-15T10:00:00Z,28.9818,-94.9186,21.0,11144222 
TABS,ioos:station:wmo:42043:1,2005-10-15T10:30:00Z,28.9818,-94.9186,21.2,11144222 
TABS,ioos:station:wmo:42043:1,2005-10-15T11:00:00Z,28.9818,-94.9186,21.5,11144222 
TABS,ioos:station:wmo:42043:1,2005-10-15T11:30:00Z,28.9818,-94.9186,21.3,11144222 
TABS,ioos:station:wmo:42043:1,2005-10-15T12:00:00Z,28.9818,-94.9186,21.3,11144222 
TABS,ioos:station:wmo:42043:1,2005-10-15T12:30:00Z,28.9818,-94.9186,21.4,11144222 
TABS,ioos:station:wmo:42043:1,2005-10-15T13:00:00Z,28.9818,-94.9186,21.6,11144222 
TABS,ioos:station:wmo:42043:1,2005-10-15T13:30:00Z,28.9818,-94.9186,22.1,11144222 
TABS,ioos:station:wmo:42043:1,2005-10-15T14:00:00Z,28.9818,-94.9186,22.2,11144222 
TABS,ioos:station:wmo:42043:1,2005-10-15T14:30:00Z,28.9818,-94.9186,22.8,11144222 
TABS,ioos:station:wmo:42043:1,2005-10-15T15:00:00Z,28.9818,-94.9186,23.3,11144222 
TABS,ioos:station:wmo:42043:1,2005-10-15T15:30:00Z,28.9818,-94.9186,23.5,11144222 
TABS,ioos:station:wmo:42043:1,2005-10-15T16:00:00Z,28.9818,-94.9186,23.5,11144222 
TABS,ioos:station:wmo:42043:1,2005-10-15T16:30:00Z,28.9818,-94.9186,23.4,11144222 
TABS,ioos:station:wmo:42043:1,2005-10-15T17:00:00Z,28.9818,-94.9186,23.5,11144222 
TABS,ioos:station:wmo:42043:1,2005-10-15T17:30:00Z,28.9818,-94.9186,23.7,11144222 
TABS,ioos:station:wmo:42043:1,2005-10-15T18:00:00Z,28.9818,-94.9186,23.6,11144222 
TABS,ioos:station:wmo:42043:1,2005-10-15T18:30:00Z,28.9818,-94.9186,23.7,11144222 
TABS,ioos:station:wmo:42043:1,2005-10-15T19:00:00Z,28.9818,-94.9186,23.7,11144222 
TABS,ioos:station:wmo:42043:1,2005-10-15T19:30:00Z,28.9818,-94.9186,23.6,11144222 
TABS,ioos:station:wmo:42043:1,2005-10-15T20:00:00Z,28.9818,-94.9186,23.6,11144222 
TABS,ioos:station:wmo:42043:1,2005-10-15T20:30:00Z,28.9818,-94.9186,23.7,11144222 
TABS,ioos:station:wmo:42043:1,2005-10-15T21:00:00Z,28.9818,-94.9186,23.9,11144222 
TABS,ioos:station:wmo:42043:1,2005-10-15T21:30:00Z,28.9818,-94.9186,24.2,11144222 
TABS,ioos:station:wmo:42043:1,2005-10-15T22:00:00Z,28.9818,-94.9186,24.3,11144222 
TABS,ioos:station:wmo:42043:1,2005-10-15T22:30:00Z,28.9818,-94.9186,24.2,11144222 
TABS,ioos:station:wmo:42043:1,2005-10-15T23:00:00Z,28.9818,-94.9186,24.3,11144222 
TABS,ioos:station:wmo:42043:1,2005-10-15T23:30:00Z,28.9818,-94.9186,24.0,11144222 
TABS,ioos:station:wmo:42043:1,2005-10-16T00:00:00Z,28.9818,-94.9186,23.8,11144222 
TABS,ioos:station:wmo:42043:1,2005-10-16T00:30:00Z,28.9818,-94.9186,23.7,11144222 
TABS,ioos:station:wmo:42043:1,2005-10-16T01:00:00Z,28.9818,-94.9186,23.8,11144222 
TABS,ioos:station:wmo:42043:1,2005-10-16T01:30:00Z,28.9818,-94.9186,23.7,11144222 
TABS,ioos:station:wmo:42043:1,2005-10-16T02:00:00Z,28.9818,-94.9186,23.7,11144222 
TABS,ioos:station:wmo:42043:1,2005-10-16T02:30:00Z,28.9818,-94.9186,23.9,11144222 
TABS,ioos:station:wmo:42043:1,2005-10-16T03:00:00Z,28.9818,-94.9186,23.9,11144222 
TABS,ioos:station:wmo:42043:1,2005-10-16T03:30:00Z,28.9818,-94.9186,24.0,11144222 
TABS,ioos:station:wmo:42043:1,2005-10-16T04:00:00Z,28.9818,-94.9186,24.0,11144222 
TABS,ioos:station:wmo:42043:1,2005-10-16T04:30:00Z,28.9818,-94.9186,24.0,11144222 
TABS,ioos:station:wmo:42043:1,2005-10-16T05:00:00Z,28.9818,-94.9186,24.0,11144222 
TABS,ioos:station:wmo:42043:1,2005-10-16T05:30:00Z,28.9818,-94.9186,24.0,11144222 
TABS,ioos:station:wmo:42043:1,2005-10-16T06:00:00Z,28.9818,-94.9186,24.2,11144222 
TABS,ioos:station:wmo:42043:1,2005-10-16T06:30:00Z,28.9818,-94.9186,24.1,11144222 
TABS,ioos:station:wmo:42043:1,2005-10-16T07:00:00Z,28.9818,-94.9186,24.1,11144222 
TABS,ioos:station:wmo:42043:1,2005-10-16T07:30:00Z,28.9818,-94.9186,24.2,11144222 
TABS,ioos:station:wmo:42043:1,2005-10-16T08:00:00Z,28.9818,-94.9186,24.1,11144222 
TABS,ioos:station:wmo:42043:1,2005-10-16T08:30:00Z,28.9818,-94.9186,23.8,11144222 
TABS,ioos:station:wmo:42043:1,2005-10-16T09:00:00Z,28.9818,-94.9186,23.8,11144222 
TABS,ioos:station:wmo:42043:1,2005-10-16T09:30:00Z,28.9818,-94.9186,23.5,11144222 
TABS,ioos:station:wmo:42043:1,2005-10-16T10:00:00Z,28.9818,-94.9186,23.0,11144222 
TABS,ioos:station:wmo:42043:1,2005-10-16T10:30:00Z,28.9818,-94.9186,22.7,11144222 
TABS,ioos:station:wmo:42043:1,2005-10-16T11:00:00Z,28.9818,-94.9186,21.5,11144222 
TABS,ioos:station:wmo:42043:1,2005-10-16T11:30:00Z,28.9818,-94.9186,20.8,11144222 
TABS,ioos:station:wmo:42043:1,2005-10-16T12:00:00Z,28.9818,-94.9186,19.7,11144222 
TABS,ioos:station:wmo:42043:1,2005-10-16T12:30:00Z,28.9818,-94.9186,19.6,11144222 
TABS,ioos:station:wmo:42043:1,2005-10-16T13:00:00Z,28.9818,-94.9186,19.8,11144222 
TABS,ioos:station:wmo:42043:1,2005-10-16T13:30:00Z,28.9818,-94.9186,20.3,11144222 
TABS,ioos:station:wmo:42043:1,2005-10-16T14:00:00Z,28.9818,-94.9186,20.4,11144222 
TABS,ioos:station:wmo:42043:1,2005-10-16T14:30:00Z,28.9818,-94.9186,20.5,11144222 
TABS,ioos:station:wmo:42043:1,2005-10-16T15:00:00Z,28.9818,-94.9186,20.7,11144222 
TABS,ioos:station:wmo:42043:1,2005-10-16T15:30:00Z,28.9818,-94.9186,20.8,11144222 
TABS,ioos:station:wmo:42043:1,2005-10-16T16:00:00Z,28.9818,-94.9186,20.8,11144222 
TABS,ioos:station:wmo:42043:1,2005-10-16T16:30:00Z,28.9818,-94.9186,20.8,11144222 
TABS,ioos:station:wmo:42043:1,2005-10-16T17:00:00Z,28.9818,-94.9186,21.0,11144222 
TABS,ioos:station:wmo:42043:1,2005-10-16T17:30:00Z,28.9818,-94.9186,20.9,11144222 
TABS,ioos:station:wmo:42043:1,2005-10-16T18:00:00Z,28.9818,-94.9186,20.8,11144222 
TABS,ioos:station:wmo:42043:1,2005-10-16T18:30:00Z,28.9818,-94.9186,21.0,11144222 
TABS,ioos:station:wmo:42043:1,2005-10-16T19:00:00Z,28.9818,-94.9186,21.4,11144222 
TABS,ioos:station:wmo:42043:1,2005-10-16T19:30:00Z,28.9818,-94.9186,21.8,11144222 
TABS,ioos:station:wmo:42043:1,2005-10-16T20:00:00Z,28.9818,-94.9186,22.1,11144222 
TABS,ioos:station:wmo:42043:1,2005-10-16T20:30:00Z,28.9818,-94.9186,22.6,11144222 
TABS,ioos:station:wmo:42043:1,2005-10-16T21:00:00Z,28.9818,-94.9186,23.2,11144222 
TABS,ioos:station:wmo:42043:1,2005-10-16T21:30:00Z,28.9818,-94.9186,23.6,11144222 
TABS,ioos:station:wmo:42043:1,2005-10-16T22:00:00Z,28.9818,-94.9186,24.1,11144222 
TABS,ioos:station:wmo:42043:1,2005-10-16T22:30:00Z,28.9818,-94.9186,24.3,11144222 
TABS,ioos:station:wmo:42043:1,2005-10-16T23:00:00Z,28.9818,-94.9186,24.3,11144222 
TABS,ioos:station:wmo:42043:1,2005-10-16T23:30:00Z,28.9818,-94.9186,24.4,11144222 
TABS,ioos:station:wmo:42043:1,2005-10-17T00:00:00Z,28.9818,-94.9186,24.2,11144222 
TABS,ioos:station:wmo:42043:1,2005-10-17T00:30:00Z,28.9818,-94.9186,24.4,11144222 
TABS,ioos:station:wmo:42043:1,2005-10-17T01:00:00Z,28.9818,-94.9186,24.4,11144222 
TABS,ioos:station:wmo:42043:1,2005-10-17T01:30:00Z,28.9818,-94.9186,24.5,11144222 
TABS,ioos:station:wmo:42043:1,2005-10-17T02:00:00Z,28.9818,-94.9186,24.7,11144222 
TABS,ioos:station:wmo:42043:1,2005-10-17T02:30:00Z,28.9818,-94.9186,24.7,11144222 
TABS,ioos:station:wmo:42043:1,2005-10-17T03:00:00Z,28.9818,-94.9186,24.6,11144222 
TABS,ioos:station:wmo:42043:1,2005-10-17T03:30:00Z,28.9818,-94.9186,24.6,11144222 
TABS,ioos:station:wmo:42043:1,2005-10-17T04:00:00Z,28.9818,-94.9186,24.5,11144222 
TABS,ioos:station:wmo:42043:1,2005-10-17T04:30:00Z,28.9818,-94.9186,24.5,11144222 
TABS,ioos:station:wmo:42043:1,2005-10-17T05:00:00Z,28.9818,-94.9186,24.3,11144222 
TABS,ioos:station:wmo:42043:1,2005-10-17T05:30:00Z,28.9818,-94.9186,24.2,11144222 
TABS,ioos:station:wmo:42043:1,2005-10-17T06:00:00Z,28.9818,-94.9186,24.1,11144222 
TABS,ioos:station:wmo:42043:1,2005-10-17T06:30:00Z,28.9818,-94.9186,24.1,11144222 
TABS,ioos:station:wmo:42043:1,2005-10-17T07:00:00Z,28.9818,-94.9186,23.9,11144222 
TABS,ioos:station:wmo:42043:1,2005-10-17T07:30:00Z,28.9818,-94.9186,23.9,11144222 
TABS,ioos:station:wmo:42043:1,2005-10-17T08:00:00Z,28.9818,-94.9186,23.7,11144222 
TABS,ioos:station:wmo:42043:1,2005-10-17T08:30:00Z,28.9818,-94.9186,23.6,11144222 
TABS,ioos:station:wmo:42043:1,2005-10-17T09:00:00Z,28.9818,-94.9186,22.6,11144222 
TABS,ioos:station:wmo:42043:1,2005-10-17T09:30:00Z,28.9818,-94.9186,22.1,11144222 
TABS,ioos:station:wmo:42043:1,2005-10-17T10:00:00Z,28.9818,-94.9186,21.8,11144222 
TABS,ioos:station:wmo:42043:1,2005-10-17T10:30:00Z,28.9818,-94.9186,21.5,11144222 
TABS,ioos:station:wmo:42043:1,2005-10-17T11:00:00Z,28.9818,-94.9186,21.5,11144222 
TABS,ioos:station:wmo:42043:1,2005-10-17T11:30:00Z,28.9818,-94.9186,21.2,11144222 
TABS,ioos:station:wmo:42043:1,2005-10-17T12:00:00Z,28.9818,-94.9186,20.2,11144222 
TABS,ioos:station:wmo:42043:1,2005-10-17T12:30:00Z,28.9818,-94.9186,20.2,11144222 
TABS,ioos:station:wmo:42043:1,2005-10-17T13:00:00Z,28.9818,-94.9186,20.1,11144222 